Weather History for KBKL - December, 2012

Change the Weather History Date:

Sunday, December 2, 2012

  Actual Average Record
Temperature  
Mean Temperature 55 °F -  
Max Temperature 57 °F 44 °F 66 °F (1998)
Min Temperature 53 °F 34 °F 21 °F (2002)
Degree Days  
Heating Degree Days 10    
Growing Degree Days 5 (Base 50)    
Moisture  
Dew Point 51 °F    
Average Humidity 86    
Maximum Humidity 97    
Minimum Humidity 58    
Precipitation  
Precipitation 0.56 in - - ()
Sea Level Pressure  
Sea Level Pressure 30.03 in    
Wind  
Wind Speed 12 mph (SSW)    
Max Wind Speed 20 mph    
Max Gust Speed 26 mph    
Visibility 7 miles    
Events Rain    
Averages and records for this station are not official NWS values.
T = Trace of Precipitation, MM = Missing Value Source: NWS Daily Summary

Daily Weather History Graph

Daily Weather History Graph

Search for Another Location

Airport or City:

Trip Planner

Search our weather history database for the weather conditions in past years. The results will help you decide how hot, cold, wet, or windy it might be!

Date:

Astronomy

Dec. 02, 2012 Rise Set
Actual Time 7:35 AM EST 4:57 PM EST
Civil Twilight 7:04 AM EST 5:28 PM EST
Nautical Twilight 6:29 AM EST 6:02 PM EST
Astronomical Twilight 5:56 AM EST 6:36 PM EST
Moon 8:44 PM EST 10:23 AM EST
Length of Visible Light 10h 23m
Length of Day
9h 22m
Waning Gibbous, 86% of the Moon is Illuminated
Dec 2
Waning Gibbous
Dec 6
Last Quarter
Dec 13
New
Dec 20
First Quarter
Dec 28
Full

Hourly Weather History & Observations

Time (EST) Temp. Dew Point Humidity Pressure Visibility Wind Dir Wind Speed Gust Speed Precip Events Conditions
12:53 AM 55.0 °F 42.1 °F 62% 30.12 in 10.0 mi SSE 10.4 mph - N/A   Mostly Cloudy
1:53 AM 55.0 °F 42.1 °F 62% 30.08 in 10.0 mi SSE 12.7 mph - N/A   Overcast
2:53 AM 57.9 °F 43.0 °F 58% 30.06 in 10.0 mi South 16.1 mph 26.5 mph N/A   Overcast
3:53 AM 57.9 °F 44.1 °F 60% 30.04 in 10.0 mi SSW 19.6 mph 26.5 mph N/A   Overcast
4:53 AM 54.0 °F 46.0 °F 75% 30.05 in 9.0 mi SSW 8.1 mph - 0.04 in Rain Light Rain
5:53 AM 54.0 °F 46.9 °F 77% 30.01 in 9.0 mi SSE 11.5 mph - 0.05 in Rain Light Rain
6:53 AM 54.0 °F 48.0 °F 80% 30.02 in 10.0 mi SSW 10.4 mph - 0.02 in Rain Light Rain
7:53 AM 53.1 °F 48.9 °F 86% 30.01 in 6.0 mi South 11.5 mph - 0.15 in Rain Light Rain
8:53 AM 53.1 °F 48.9 °F 86% 30.01 in 10.0 mi South 13.8 mph 20.7 mph 0.05 in   Overcast
9:53 AM 54.0 °F 48.0 °F 80% 30.01 in 10.0 mi South 15.0 mph 23.0 mph 0.01 in   Overcast
10:53 AM 53.1 °F 50.0 °F 89% 30.01 in 2.5 mi South 16.1 mph 25.3 mph 0.11 in Rain Rain
11:08 AM 53.6 °F 50.0 °F 88% 30.00 in 4.0 mi South 13.8 mph - 0.02 in Rain Light Rain
11:30 AM 53.6 °F 50.0 °F 88% 29.99 in 5.0 mi South 16.1 mph 25.3 mph 0.04 in Rain Light Rain
11:53 AM 53.1 °F 50.0 °F 89% 29.99 in 7.0 mi South 17.3 mph 24.2 mph 0.05 in Rain Light Rain
12:44 PM 53.6 °F 51.8 °F 94% 29.97 in 2.0 mi SSW 11.5 mph 23.0 mph 0.05 in Rain Heavy Rain
12:53 PM 54.0 °F 51.1 °F 90% 29.97 in 3.0 mi SSW 15.0 mph 20.7 mph 0.06 in Rain Light Rain
1:01 PM 53.6 °F 51.8 °F 94% 29.97 in 6.0 mi SSW 15.0 mph 23.0 mph 0.00 in Rain Light Rain
1:42 PM 55.4 °F 51.8 °F 88% 29.97 in 10.0 mi SSW 17.3 mph 24.2 mph 0.01 in   Overcast
1:53 PM 55.0 °F 51.1 °F 86% 29.97 in 10.0 mi SSW 15.0 mph 25.3 mph 0.01 in   Overcast
2:11 PM 55.4 °F 51.8 °F 88% 29.97 in 10.0 mi SW 10.4 mph 24.2 mph N/A   Overcast
2:18 PM 55.4 °F 51.8 °F 88% 29.97 in 10.0 mi SW 15.0 mph 24.2 mph N/A   Overcast
2:53 PM 55.0 °F 52.0 °F 89% 29.97 in 9.0 mi SSW 15.0 mph - 0.01 in   Overcast
3:35 PM 55.4 °F 51.8 °F 88% 29.98 in 9.0 mi SW 12.7 mph - N/A   Overcast
3:53 PM 55.0 °F 52.0 °F 89% 30.00 in 9.0 mi SW 13.8 mph - N/A   Overcast
4:53 PM 55.0 °F 53.1 °F 93% 30.01 in 6.0 mi SW 10.4 mph - N/A   Overcast
5:53 PM 55.0 °F 53.1 °F 93% 30.04 in 5.0 mi SW 11.5 mph - N/A   Overcast
6:02 PM 55.4 °F 53.6 °F 94% 30.04 in 5.0 mi SW 10.4 mph - N/A   Overcast
6:53 PM 55.0 °F 53.1 °F 93% 30.07 in 4.0 mi SW 6.9 mph - N/A   Overcast
7:53 PM 54.0 °F 53.1 °F 97% 30.09 in 4.0 mi WSW 3.5 mph - N/A   Overcast
8:07 PM 53.6 °F 51.8 °F 94% 30.09 in 2.0 mi SSW 5.8 mph - N/A   Overcast
8:26 PM 55.4 °F 53.6 °F 94% 30.09 in 4.0 mi SW 4.6 mph - N/A   Overcast
8:53 PM 55.0 °F 53.1 °F 93% 30.09 in 5.0 mi SSW 5.8 mph - N/A   Overcast
9:05 PM 55.4 °F 53.6 °F 94% 30.09 in 5.0 mi SSW 5.8 mph - N/A   Overcast
9:27 PM 55.4 °F 53.6 °F 94% 30.09 in 5.0 mi SW 5.8 mph - N/A   Overcast
9:53 PM 55.9 °F 53.1 °F 90% 30.10 in 5.0 mi SSW 6.9 mph - N/A   Overcast
10:53 PM 55.9 °F 53.1 °F 90% 30.10 in 5.0 mi SW 6.9 mph - N/A   Overcast
11:51 PM 55.4 °F 53.6 °F 94% 30.12 in 5.0 mi SW 6.9 mph - N/A   Overcast
11:53 PM 55.9 °F 53.1 °F 90% 30.12 in 5.0 mi SW 5.8 mph - N/A   Overcast